Back to catalog

COSMOS 1818 COOLANT

LostLEO
NORAD 36940·DEBRIS·🇷🇺 Russia

Launched Feb 1, 1987 from Baikonur Cosmodrome

Loading…

Next Passes (next 24 hours)

TLE

StaleSource: Space-Track

Epoch: Sep 3, 2022, 22:47 UTC

1 36940U 87011U   22246.94949399  .00000262  00000-0  12978-3 0  9991
2 36940  65.0140 137.1699 0012381 250.3065 109.6685 14.33888462682033

Track COSMOS 1818 COOLANT in real time with AllMySat

Download on the App Store